Temperature
9 9 9 10 10 10 10 9 9 9 9 9 9 9 9 9 9 9 9 9 9 9 9 9 9 9 9 9 9 8 8 8 8 8 8 8 8 8 8 8 8 8 8
9 9 9 9 9 9 9 9 9 9 9 9 9 9 9 9 9 9 9 8 8 9 9 9 9 9 8 8 8 8 8 8 8 8 7 7 7 7 7 8 8 7 7
9 8 8 9 9 9 9 9 9 9 9 9 8 8 8 8 8 8 8 8 8 8 8 8 8 8 8 8 8 8 8 8 7 7 7 7 7 6 7 7 7 7 7
8 8 8 8 8 8 9 9 8 8 8 8 8 8 8 8 8 8 8 8 8 8 8 8 8 8 8 7 7 7 7 7 7 7 7 7 7 7 6 6 6 6 6
7 7 7 7 8 8 8 8 8 8 8 8 8 8 8 8 8 8 8 8 8 8 8 7 8 7 7 7 7 7 7 7 7 7 7 7 7 7 6 6 6 6 6
7 7 7 7 7 7 8 8 8 8 7 7 7 7 7 7 7 7 7 7 7 7 7 7 7 7 7 7 7 7 6 6 6 6 6 6 6 6 6 6 6 5 6
6 6 6 6 7 7 7 7 7 7 7 7 7 7 7 7 7 7 7 7 7 7 7 7 7 7 7 7 7 6 6 6 6 6 6 6 6 6 6 6 5 5 5
5 5 6 6 6 7 6 6 6 6 6 6 6 6 6 6 6 6 7 7 7 7 7 7 6 6 6 6 6 6 6 6 6 5 5 5 5 5 5 5 5 4 4
5 5 5 5 6 6 6 6 6 6 6 6 6 6 6 6 6 6 6 6 6 6 6 6 6 6 6 6 6 5 5 5 5 5 5 5 5 5 5 5 5 4 4
4 4 5 5 5 5 6 6 6 6 6 6 6 6 6 6 6 6 6 6 6 6 6 6 6 6 5 5 5 5 5 5 5 5 5 5 5 5 5 4 4 4 3
3 3 4 4 4 5 5 5 5 5 5 5 5 5 5 5 5 5 5 5 5 6 6 6 5 5 5 5 5 5 5 5 5 4 4 4 4 4 4 4 4 3 3
2 3 3 3 4 4 4 5 5 5 5 5 5 5 5 5 5 5 5 5 5 5 5 5 5 5 5 5 4 4 4 4 4 4 4 4 4 4 3 3 3 3 3
2 2 2 3 3 3 4 4 4 4 4 4 4 4 4 5 5 5 5 5 5 5 5 4 4 4 4 4 4 4 4 4 4 4 3 3 3 3 3 3 3 3 2
1 2 2 2 3 3 3 3 3 3 4 4 4 4 4 4 4 4 4 4 4 4 4 4 4 4 4 4 4 4 4 3 3 3 3 3 3 3 3 3 2 2 2
1 1 1 1 2 2 3 3 3 3 3 3 3 4 4 4 4 4 4 4 4 4 4 4 4 3 3 3 3 3 3 3 3 3 3 3 3 2 2 2 2 2 2
-0 0 0 1 1 2 2 2 2 3 3 3 3 3 3 3 3 3 3 3 3 3 3 3 3 3 3 3 3 3 3 2 2 3 2 2 2 2 2 2 2 2 1
-0 -0 -0 0 1 1 2 2 2 2 2 2 2 2 3 3 3 3 3 3 3 3 3 3 2 3 3 3 2 2 2 2 2 2 2 2 2 2 2 1 1 1 1
-1 -1 -0 -0 0 1 1 1 2 2 2 2 2 2 2 2 2 2 2 2 2 2 2 2 2 2 2 2 2 2 2 2 2 2 2 2 2 1 1 1 1 1 1
-1 -1 -1 -1 -0 0 0 1 1 1 1 1 2 2 2 2 2 1 1 2 2 2 1 1 1 1 1 1 1 1 1 1 1 1 1 1 1 1 1 0 0 0 0
-2 -2 -1 -1 -1 -0 -0 0 0 1 1 1 1 1 1 1 1 1 1 1 1 1 1 1 1 1 1 1 1 1 1 1 1 1 1 0 0 0 0 0 -0 -0 -0
-2 -2 -2 -1 -1 -1 -0 -0 -0 0 0 0 0 1 1 1 0 0 0 0 0 0 0 0 0 0 0 0 0 0 0 0 0 0 0 0 -0 -0 -0 -0 -1 -1 -1
-2 -2 -2 -2 -1 -1 -1 -1 -1 -0 -0 -0 -0 -0 -0 -0 -0 -0 -0 -0 -0 -0 -0 -0 -0 -0 -0 -0 -0 -0 -0 -0 -0 -0 -0 -0 -0 -1 -1 -1 -1 -1 -1
-3 -3 -3 -3 -2 -2 -1 -1 -1 -1 -1 -0 -1 -1 -1 -1 -1 -1 -1 -1 -1 -1 -1 -1 -1 -1 -1 -1 -1 -1 -1 -1 -1 -1 -1 -1 -1 -1 -1 -1 -1 -2 -2
-4 -4 -3 -3 -3 -2 -2 -2 -1 -1 -1 -1 -1 -1 -1 -1 -1 -1 -1 -1 -1 -1 -1 -1 -2 -2 -1 -1 -1 -2 -2 -2 -2 -2 -2 -2 -2 -2 -2 -2 -2 -2 -3
-4 -4 -4 -4 -3 -3 -2 -2 -2 -2 -2 -2 -2 -2 -2 -2 -2 -2 -2 -2 -2 -2 -2 -2 -2 -2 -2 -2 -2 -2 -2 -2 -2 -2 -2 -2 -2 -2 -2 -2 -3 -3 -3
-5 -5 -4 -4 -4 -4 -3 -3 -3 -2 -2 -2 -2 -2 -2 -2 -2 -2 -2 -2 -2 -2 -2 -2 -2 -2 -2 -2 -2 -2 -2 -2 -2 -3 -3 -3 -3 -3 -3 -3 -3 -3 -4
Wind_Speed
9 8 8 8 8 8 8 8 8 8 7 5 5 5 5 4 4 4 5 6 6 7 6 5 5 5 5 5 5 4 5 4 4 3 2 2 2 1 1 2 3 3 3
8 7 7 8 9 9 8 8 9 9 8 7 6 5 5 4 4 4 5 6 6 7 6 6 5 5 5 6 6 6 5 3 4 3 3 2 3 2 1 2 2 2 2
9 8 7 8 8 9 9 8 9 9 9 8 6 5 4 3 4 4 4 5 6 6 6 6 6 6 6 6 6 7 6 5 4 3 3 3 3 2 2 3 2 2 2
8 7 7 8 8 8 8 8 9 9 9 9 8 9 7 6 6 6 5 5 5 6 6 6 6 6 6 6 7 6 5 6 5 4 1 1 1 2 2 3 3 3 3
6 7 6 7 7 7 7 8 8 9 9 9 9 9 8 6 5 5 6 5 5 5 5 6 6 6 5 6 7 6 6 6 6 4 3 2 1 2 2 3 3 3 4
5 5 4 5 5 6 6 7 8 8 9 9 9 9 9 8 7 7 6 5 4 4 5 5 6 6 6 7 7 7 7 6 6 5 4 4 3 3 3 3 4 4 3
4 4 3 3 4 6 6 7 7 8 8 9 9 9 9 9 9 8 7 6 4 4 5 5 5 5 6 6 6 6 6 7 7 6 5 5 4 3 3 3 3 3 2
2 3 3 3 3 4 6 7 7 8 8 9 9 8 8 7 6 7 6 6 5 5 6 6 5 6 6 6 6 6 6 6 6 6 6 4 4 4 4 3 3 3 3
1 2 2 2 2 3 4 7 7 7 8 8 8 8 8 7 7 7 6 5 5 5 6 6 6 5 6 6 6 5 6 6 6 6 6 5 4 4 4 4 4 4 4
1 0 1 1 1 2 3 4 7 7 7 7 7 6 7 7 7 6 7 6 6 6 6 6 6 5 5 5 6 5 5 6 6 5 6 5 4 4 3 4 4 4 5
2 0 0 0 0 1 1 2 4 6 6 7 7 7 6 6 6 6 6 6 5 5 6 6 6 6 6 6 6 6 6 6 6 5 6 6 5 4 4 4 4 4 5
3 2 1 1 1 1 1 1 2 3 5 6 7 7 6 6 6 6 5 5 5 5 5 6 6 6 6 6 6 6 6 6 6 6 6 6 5 6 5 4 5 5 5
3 3 3 2 2 1 1 0 1 2 3 4 5 6 6 6 6 6 5 5 5 5 5 5 6 6 6 6 6 6 6 6 6 6 6 6 6 6 5 5 5 5 5
4 4 4 3 3 2 1 1 0 1 2 4 4 5 5 5 6 5 5 5 5 5 5 5 5 6 6 6 6 6 6 6 6 5 5 6 6 7 6 5 6 5 5
5 5 5 4 4 3 2 1 1 0 1 3 4 4 4 4 4 5 5 5 5 4 4 4 4 5 5 5 6 6 6 6 5 5 5 5 5 5 5 5 5 5 5
4 5 5 5 4 3 2 2 1 1 1 2 3 3 4 4 4 4 4 4 4 4 4 4 4 4 3 5 6 6 5 5 5 5 4 4 5 5 5 5 5 5 6
5 5 5 5 4 4 3 2 1 1 1 1 2 2 3 4 4 4 4 4 4 4 4 3 3 3 3 5 6 5 4 5 5 5 4 3 3 4 4 3 4 4 5
5 5 5 5 5 4 3 2 1 0 1 1 1 2 3 3 4 4 4 4 4 4 4 3 3 3 3 4 5 5 4 4 4 4 4 4 4 4 4 3 3 4 4
5 5 5 4 4 3 2 1 1 1 1 0 1 1 2 3 4 4 4 4 4 3 3 3 3 3 3 4 5 4 3 3 3 3 3 4 4 5 5 4 4 4 3
5 5 4 4 3 3 2 1 1 1 0 0 0 1 2 3 3 3 3 3 3 3 3 3 2 2 2 3 5 5 3 3 2 2 3 4 5 5 5 5 5 5 4
6 5 4 3 3 3 2 1 1 1 1 1 1 1 1 2 2 3 3 3 3 3 3 3 2 2 2 3 4 5 3 3 3 2 2 2 4 4 5 5 5 5 4
6 6 5 4 4 3 2 2 2 2 2 1 2 2 2 2 2 3 2 3 3 3 3 2 2 1 2 2 3 4 3 3 3 3 3 2 3 3 3 3 3 3 3
6 6 5 5 5 4 3 2 2 2 2 2 2 2 3 3 2 2 3 2 3 2 2 2 2 1 1 2 3 3 3 3 3 2 2 2 2 2 2 2 2 2 2
6 5 5 5 5 5 4 3 3 2 2 3 2 2 3 3 2 1 1 1 2 2 2 2 2 1 1 2 2 2 2 2 2 2 2 2 1 1 1 1 1 2 2
5 5 5 5 5 5 5 5 4 3 3 3 2 2 2 2 1 1 1 0 1 2 2 2 2 2 3 3 3 3 2 2 2 2 2 2 2 1 1 1 1 2 2
5 5 5 5 5 5 5 5 5 4 3 2 2 2 1 1 1 1 1 2 1 1 2 2 3 3 3 3 4 4 4 4 4 3 3 3 2 2 2 2 2 2 3
Wind_Direction
243 233 218 206 202 198 195 194 192 187 182 181 182 179 182 182 181 171 183 191 187 189 189 180 178 183 187 187 184 179 170 166 161 152 138 119 127 149 156 161 161 148 148
235 226 216 203 200 197 195 196 194 189 187 188 185 187 179 185 180 174 181 192 189 188 188 183 182 187 187 185 184 183 179 174 180 177 168 174 188 188 194 185 179 172 163
234 224 216 207 200 197 196 196 196 191 189 184 174 168 164 163 174 184 189 194 192 188 190 190 185 186 186 186 186 188 190 186 185 197 199 194 202 180 194 206 203 199 201
233 228 216 208 202 201 197 196 195 191 188 182 182 181 181 181 190 191 191 191 193 191 191 191 188 187 190 191 192 193 196 190 189 189 217 280 192 190 187 199 210 223 233
229 223 216 207 200 194 193 194 193 190 188 188 186 186 186 185 180 181 183 185 187 191 190 190 190 191 193 195 195 193 198 200 198 193 186 182 196 222 214 218 217 223 231
220 213 204 194 191 188 186 188 190 190 189 189 190 191 187 182 176 178 180 186 188 193 193 192 195 194 194 195 196 197 201 205 204 203 199 199 203 209 215 228 229 231 229
204 194 183 181 184 189 187 189 190 191 190 190 192 193 192 188 185 185 187 189 190 194 197 193 197 198 199 197 195 196 201 206 206 209 209 213 218 212 215 220 228 245 251
197 187 180 175 182 189 186 189 192 192 191 192 194 194 193 191 191 191 189 192 195 197 196 196 198 197 196 196 194 194 200 203 206 211 211 212 215 208 209 214 219 243 246
210 184 169 157 178 188 191 191 189 190 189 189 188 191 193 193 192 191 191 191 194 193 191 191 194 194 192 193 191 197 201 199 204 208 211 213 214 217 215 214 218 225 239
306 195 179 180 210 203 196 192 192 190 188 187 186 188 191 193 192 189 189 190 191 185 186 188 191 192 188 188 191 195 199 200 202 204 208 212 214 215 214 217 224 236 244
351 30 13 9 39 134 164 185 195 189 186 186 185 184 185 186 186 187 188 187 186 184 186 188 189 190 191 191 193 193 191 198 201 204 209 214 213 213 213 216 222 231 239
12 22 23 42 53 68 136 184 195 194 189 188 184 183 182 181 182 183 182 181 182 182 184 186 188 192 193 192 192 193 194 200 204 208 212 216 211 216 217 219 227 232 238
7 15 17 21 24 25 27 346 199 202 190 181 178 180 182 181 184 183 180 182 182 180 181 186 190 194 195 194 196 195 196 204 208 208 213 217 213 217 220 224 230 232 236
360 360 1 1 359 2 6 348 249 204 190 179 174 178 183 184 185 183 181 182 181 180 181 187 192 193 194 196 196 196 197 202 208 210 214 222 222 223 221 223 227 228 232
358 351 345 343 343 350 351 347 339 203 185 180 176 182 184 180 178 176 176 177 178 180 182 183 187 188 191 195 195 196 198 201 204 207 213 218 217 222 224 223 226 226 228
343 340 338 337 336 337 334 327 324 327 185 181 182 177 174 174 175 173 170 169 172 176 175 181 183 187 190 187 195 198 197 200 203 206 208 208 204 207 215 223 231 235 230
327 327 329 327 320 314 315 306 296 283 178 176 180 170 170 169 170 167 168 172 172 168 167 171 177 186 182 176 188 194 197 198 201 202 203 204 204 207 212 215 227 244 250
320 322 325 325 322 316 318 314 305 193 163 162 170 172 175 174 168 167 170 171 171 170 168 170 179 183 182 181 179 183 198 198 202 205 206 209 210 208 210 219 235 248 255
319 320 324 321 320 321 328 5 60 92 104 127 183 190 183 177 172 173 175 173 168 167 165 166 172 178 182 183 181 183 193 196 207 211 212 215 218 206 212 221 231 244 259
332 334 337 339 337 333 342 58 78 81 50 316 273 189 182 176 173 175 174 170 165 161 155 157 172 180 183 181 184 191 192 196 203 212 216 216 221 218 223 229 230 238 253
349 350 353 355 348 345 8 63 49 10 336 350 28 103 140 150 156 158 162 161 156 151 150 152 167 178 184 182 189 197 201 200 203 215 227 222 210 230 237 243 243 247 262
360 359 1 0 2 8 38 52 22 2 20 49 68 87 99 107 125 137 143 149 150 149 152 154 156 167 182 192 197 203 211 214 214 225 231 226 219 236 247 249 245 256 270
1 2 4 4 9 16 34 42 10 23 55 69 74 83 87 90 107 127 136 139 150 158 164 171 181 187 194 203 206 213 218 225 237 243 238 235 235 236 238 230 249 259 256
358 2 9 14 11 12 21 25 19 38 67 74 71 77 85 82 82 91 124 149 167 171 177 187 199 206 222 228 212 215 217 219 232 238 220 207 215 238 241 240 249 257 258
355 2 6 6 6 9 17 17 16 33 57 60 55 58 66 76 70 54 27 255 237 224 215 215 217 217 228 238 237 228 226 228 224 212 208 208 212 222 231 248 264 265 258
354 358 1 4 5 11 14 12 12 26 40 40 31 30 36 32 26 44 33 24 339 322 287 260 249 249 247 238 236 239 240 229 208 213 211 220 225 229 237 244 254 259 259
Height
1475 1476 1477 1478 1480 1482 1484 1486 1488 1490 1492 1494 1495 1497 1499 1501 1503 1505 1507 1509 1510 1512 1513 1515 1516 1518 1520 1521 1523 1525 1527 1528 1529 1531 1532 1533 1534 1535 1535 1536 1537 1538 1539
1471 1471 1472 1473 1475 1477 1479 1481 1483 1486 1488 1490 1492 1494 1496 1498 1499 1502 1504 1506 1508 1509 1510 1512 1513 1515 1517 1519 1521 1522 1524 1525 1527 1528 1530 1531 1533 1532 1533 1534 1535 1536 1536
1466 1467 1468 1469 1470 1472 1474 1477 1479 1481 1484 1486 1488 1490 1492 1494 1496 1498 1501 1503 1504 1506 1507 1509 1511 1512 1514 1516 1517 1519 1521 1522 1524 1526 1528 1529 1529 1530 1530 1530 1531 1533 1534
1462 1463 1463 1464 1466 1468 1470 1473 1475 1477 1480 1482 1483 1485 1487 1489 1491 1494 1497 1499 1501 1502 1504 1506 1507 1509 1511 1512 1514 1516 1518 1520 1521 1522 1524 1525 1526 1527 1528 1528 1529 1529 1530
1458 1458 1459 1461 1463 1465 1467 1469 1471 1474 1476 1478 1480 1482 1484 1486 1489 1491 1493 1495 1497 1499 1501 1503 1504 1506 1507 1509 1511 1513 1515 1516 1518 1519 1520 1522 1523 1523 1525 1525 1526 1526 1527
1454 1455 1456 1458 1460 1462 1463 1465 1467 1469 1471 1473 1476 1478 1480 1483 1485 1487 1490 1492 1494 1496 1497 1499 1501 1502 1504 1506 1507 1509 1511 1513 1514 1516 1517 1518 1519 1520 1521 1522 1522 1522 1523
1451 1452 1453 1455 1456 1458 1460 1462 1464 1465 1468 1470 1472 1475 1477 1479 1482 1484 1486 1488 1490 1492 1493 1495 1497 1499 1501 1502 1504 1505 1507 1509 1511 1512 1513 1515 1516 1517 1518 1519 1519 1519 1519
1449 1450 1451 1452 1453 1455 1457 1458 1460 1462 1464 1466 1469 1471 1474 1476 1478 1481 1483 1485 1486 1488 1490 1492 1493 1495 1497 1499 1500 1502 1503 1505 1507 1508 1510 1511 1512 1513 1514 1516 1516 1515 1516
1448 1448 1449 1450 1451 1452 1454 1455 1457 1459 1461 1463 1466 1468 1471 1473 1475 1477 1479 1481 1483 1485 1487 1488 1490 1492 1493 1495 1496 1498 1499 1501 1503 1505 1506 1507 1508 1510 1510 1511 1512 1513 1512
1447 1447 1448 1449 1449 1450 1451 1453 1455 1456 1458 1460 1462 1465 1467 1469 1472 1474 1476 1478 1480 1481 1483 1485 1486 1488 1490 1491 1493 1494 1496 1498 1499 1501 1502 1503 1504 1505 1506 1507 1508 1509 1509
1447 1447 1447 1447 1448 1448 1449 1450 1452 1454 1455 1457 1459 1462 1464 1466 1469 1471 1473 1475 1476 1478 1479 1481 1483 1484 1486 1488 1489 1491 1492 1494 1496 1497 1498 1499 1500 1501 1502 1503 1503 1504 1505
1447 1447 1446 1446 1446 1447 1447 1448 1449 1451 1453 1455 1457 1459 1461 1463 1465 1467 1469 1471 1473 1475 1476 1478 1479 1481 1482 1484 1486 1487 1489 1491 1492 1493 1494 1495 1496 1497 1498 1498 1499 1500 1500
1447 1447 1446 1445 1445 1445 1446 1446 1447 1448 1450 1452 1454 1456 1458 1459 1462 1464 1466 1468 1470 1471 1473 1474 1476 1477 1479 1480 1482 1484 1485 1487 1488 1489 1490 1491 1492 1492 1493 1493 1494 1495 1495
1447 1446 1445 1444 1444 1444 1444 1444 1445 1446 1448 1449 1451 1453 1455 1457 1459 1460 1462 1464 1466 1468 1469 1471 1472 1474 1475 1476 1478 1480 1481 1482 1484 1484 1485 1486 1487 1488 1488 1489 1490 1491 1491
1447 1445 1444 1443 1443 1443 1443 1443 1444 1444 1446 1447 1448 1450 1452 1454 1456 1457 1459 1461 1463 1464 1466 1467 1469 1470 1471 1473 1474 1476 1477 1478 1479 1480 1481 1482 1483 1483 1484 1485 1486 1486 1486
1447 1446 1444 1443 1442 1442 1442 1442 1442 1443 1444 1445 1446 1448 1449 1451 1452 1454 1456 1457 1459 1461 1462 1464 1465 1466 1467 1469 1471 1472 1473 1475 1476 1476 1477 1478 1479 1480 1481 1481 1482 1482 1482
1446 1445 1443 1442 1441 1441 1441 1441 1441 1442 1443 1443 1444 1445 1447 1448 1449 1451 1453 1454 1456 1458 1459 1460 1462 1463 1464 1466 1467 1468 1470 1471 1472 1473 1474 1475 1476 1477 1477 1477 1478 1478 1479
1445 1443 1442 1441 1441 1440 1440 1440 1440 1441 1441 1442 1443 1444 1444 1446 1447 1448 1450 1452 1454 1455 1456 1458 1459 1460 1461 1463 1464 1465 1467 1468 1469 1470 1471 1472 1472 1473 1474 1474 1474 1474 1475
1444 1442 1441 1440 1440 1439 1439 1439 1439 1440 1440 1440 1441 1442 1443 1444 1445 1446 1447 1449 1451 1452 1454 1455 1456 1457 1459 1460 1461 1462 1464 1464 1466 1467 1468 1469 1469 1470 1471 1471 1471 1470 1471
1443 1442 1440 1439 1439 1438 1438 1438 1438 1438 1439 1440 1440 1441 1442 1442 1443 1444 1446 1447 1449 1450 1451 1452 1454 1455 1456 1457 1458 1460 1461 1462 1463 1464 1465 1466 1466 1467 1467 1467 1467 1467 1467
1442 1441 1439 1438 1437 1437 1437 1437 1437 1438 1438 1439 1439 1440 1440 1441 1441 1443 1444 1445 1446 1448 1449 1450 1451 1452 1454 1455 1456 1457 1458 1459 1460 1461 1461 1462 1463 1463 1464 1464 1464 1464 1463
1442 1440 1439 1438 1437 1437 1436 1436 1436 1437 1437 1438 1438 1438 1439 1439 1440 1441 1442 1444 1445 1446 1447 1448 1449 1450 1451 1453 1453 1455 1456 1457 1457 1458 1458 1459 1460 1460 1460 1460 1460 1460 1460
1443 1441 1440 1438 1437 1436 1436 1436 1436 1436 1436 1437 1437 1438 1438 1439 1440 1440 1441 1442 1443 1444 1445 1446 1447 1448 1449 1450 1451 1452 1453 1454 1454 1455 1455 1456 1456 1456 1456 1456 1456 1456 1456
1444 1442 1440 1438 1437 1437 1436 1436 1436 1436 1436 1436 1437 1437 1437 1438 1439 1440 1441 1441 1442 1442 1443 1444 1445 1446 1447 1447 1448 1449 1450 1450 1451 1452 1452 1452 1453 1453 1453 1453 1453 1452 1452
1444 1443 1441 1439 1438 1437 1437 1436 1436 1436 1436 1436 1436 1437 1437 1438 1439 1439 1440 1440 1441 1441 1442 1443 1443 1444 1444 1445 1445 1446 1447 1447 1448 1448 1448 1449 1449 1449 1449 1449 1449 1449 1449
1444 1443 1442 1440 1439 1438 1437 1437 1437 1436 1436 1436 1437 1437 1437 1437 1438 1438 1438 1439 1439 1440 1440 1440 1441 1441 1442 1442 1443 1443 1444 1444 1445 1445 1445 1445 1445 1445 1445 1445 1445 1445 1445